TimeHST,TemperatureF,Dew PointF,Humidity,Sea Level PressureIn,VisibilityMPH,Wind Direction,Wind SpeedMPH,Gust SpeedMPH,PrecipitationIn,Events,Conditions,WindDirDegrees,DateUTC
12:56 AM,65.8,61.9,87,30.09,10.0,NNE,8.1,-,N/A,,Overcast,20,2013-03-07 10:56:00
1:56 AM,65.8,61.9,87,30.06,10.0,NE,15.0,-,N/A,,Mostly Cloudy,40,2013-03-07 11:56:00
2:56 AM,65.8,61.0,84,30.04,10.0,NE,15.0,-,N/A,,Overcast,40,2013-03-07 12:56:00
3:56 AM,65.8,61.0,84,30.04,10.0,NE,13.8,-,N/A,,Overcast,40,2013-03-07 13:56:00
4:56 AM,64.4,60.8,88,30.08,10.0,NNE,13.8,-,N/A,,Clear,30,2013-03-07 14:56:00
5:56 AM,63.9,59.9,87,30.05,10.0,NE,12.7,-,N/A,,Partly Cloudy,50,2013-03-07 15:56:00
6:56 AM,61.9,56.8,84,30.07,10.0,ESE,6.9,-,N/A,,Clear,110,2013-03-07 16:56:00
7:56 AM,66.9,61.9,84,30.09,10.0,ENE,3.5,-,N/A,,Clear,70,2013-03-07 17:56:00
8:56 AM,72.9,59.0,62,30.09,10.0,Variable,4.6,-,N/A,,Clear,0,2013-03-07 18:56:00
9:56 AM,77.9,61.9,58,30.09,10.0,West,6.9,-,N/A,,Mostly Cloudy,270,2013-03-07 19:56:00
10:56 AM,78.8,62.6,57,30.13,10.0,Variable,6.9,-,N/A,,Mostly Cloudy,0,2013-03-07 20:56:00
11:56 AM,79.9,56.8,45,30.06,10.0,SSW,8.1,-,N/A,,Partly Cloudy,210,2013-03-07 21:56:00
12:56 PM,77.0,61.9,59,30.04,10.0,West,6.9,-,N/A,,Overcast,270,2013-03-07 22:56:00
1:56 PM,75.2,60.8,61,30.07,10.0,West,8.1,-,N/A,,Overcast,280,2013-03-07 23:56:00
2:47 PM,73.4,60.8,65,30.06,10.0,WNW,9.2,-,N/A,,Overcast,300,2013-03-08 00:47:00
2:56 PM,72.9,61.0,66,30.01,10.0,WNW,5.8,-,N/A,,Overcast,290,2013-03-08 00:56:00
3:56 PM,70.9,61.9,73,30.00,10.0,West,8.1,-,N/A,,Overcast,280,2013-03-08 01:56:00
4:36 PM,71.6,62.6,73,30.06,10.0,WSW,4.6,-,N/A,,Overcast,250,2013-03-08 02:36:00
4:56 PM,69.8,62.6,78,30.06,10.0,WNW,5.8,-,N/A,Rain,Light Rain,290,2013-03-08 02:56:00
5:04 PM,71.6,62.6,73,30.06,10.0,WNW,4.6,-,0.00,,Overcast,290,2013-03-08 03:04:00
5:13 PM,71.6,62.6,73,30.06,10.0,WNW,5.8,-,0.00,,Overcast,290,2013-03-08 03:13:00
5:56 PM,68.0,63.0,84,30.03,10.0,West,4.6,-,0.00,Rain,Light Rain,270,2013-03-08 03:56:00
6:04 PM,68.0,64.4,88,30.07,10.0,Variable,3.5,-,0.01,Rain,Light Rain,0,2013-03-08 04:04:00
6:14 PM,68.0,64.4,88,30.07,10.0,WSW,3.5,-,0.01,Rain,Light Rain,250,2013-03-08 04:14:00
6:40 PM,66.2,62.6,88,30.08,10.0,WSW,4.6,-,0.01,Rain,Light Rain,240,2013-03-08 04:40:00
6:56 PM,66.9,63.0,87,30.05,10.0,Calm,Calm,-,0.01,,Mostly Cloudy,0,2013-03-08 04:56:00
7:33 PM,66.2,62.6,88,30.10,10.0,Calm,Calm,-,N/A,,Mostly Cloudy,0,2013-03-08 05:33:00
7:43 PM,68.0,62.6,83,30.10,10.0,Calm,Calm,-,N/A,,Mostly Cloudy,0,2013-03-08 05:43:00
7:56 PM,66.2,62.6,88,30.10,10.0,NE,3.5,-,N/A,Rain,Light Rain,40,2013-03-08 05:56:00
8:07 PM,66.2,62.6,88,30.11,2.5,South,3.5,-,0.03,Rain,Heavy Rain,190,2013-03-08 06:07:00
8:37 PM,66.2,64.4,94,30.11,4.0,Calm,Calm,-,0.10,Rain,Light Rain,0,2013-03-08 06:37:00
8:56 PM,65.8,64.9,97,30.06,10.0,Calm,Calm,-,0.12,Rain,Light Rain,0,2013-03-08 06:56:00
9:28 PM,66.2,64.4,94,30.11,10.0,ENE,3.5,-,0.00,Rain,Light Rain,70,2013-03-08 07:28:00
9:36 PM,66.2,64.4,94,30.11,10.0,East,4.6,-,0.00,,Overcast,90,2013-03-08 07:36:00
9:56 PM,65.8,64.9,97,30.06,10.0,East,3.5,-,0.01,,Overcast,80,2013-03-08 07:56:00
10:56 PM,66.2,64.4,94,30.11,10.0,East,3.5,-,N/A,Rain,Light Rain,100,2013-03-08 08:56:00
11:26 PM,64.4,64.4,100,30.11,10.0,Calm,Calm,-,0.00,,Mostly Cloudy,0,2013-03-08 09:26:00
11:48 PM,64.4,62.6,94,30.10,10.0,East,4.6,-,0.00,,Scattered Clouds,80,2013-03-08 09:48:00
11:56 PM,63.9,61.9,93,30.04,10.0,East,4.6,-,0.00,,Partly Cloudy,80,2013-03-08 09:56:00